Montreal Mirabel, Quebec

9:27 AM EDT on July 27, 2017 (GMT -0400)
Montreal Mirabel

Weather History for CYMX - October, 2013

Change the Weather History Date:

Sunday, October 13, 2013

  Actual Average Record
Temperature  
Mean Temperature 55 °F -  
Max Temperature 66 °F 53 °F 66 °F (2013)
Min Temperature 44 °F 36 °F 24 °F (2012)
Degree Days  
Heating Degree Days 10    
Growing Degree Days 5 (Base 50)    
Moisture  
Dew Point 49 °F    
Average Humidity 84    
Maximum Humidity 100    
Minimum Humidity 56    
Precipitation  
Precipitation 0.00 in - - ()
Sea Level Pressure  
Sea Level Pressure 30.34 in    
Wind  
Wind Speed 4 mph ()    
Max Wind Speed 8 mph    
Max Gust Speed -    
Visibility 9.0 miles    
Events      
Averages and records for this station are not official NWS values.
T = Trace of Precipitation, MM = Missing Value Source: Averaged Metar Reports

Daily Weather History Graph

Daily Weather History Graph

Search for Another Location

Airport or City:

Trip Planner

Search our weather history database for the weather conditions in past years. The results will help you decide how hot, cold, wet, or windy it might be!

Date:

Astronomy

Oct. 13, 2013 Rise Set
Actual Time 7:10 AM EDT 6:13 PM EDT
Civil Twilight 6:40 AM EDT 6:43 PM EDT
Nautical Twilight 6:05 AM EDT 7:17 PM EDT
Astronomical Twilight 5:31 AM EDT 7:52 PM EDT
Moon 3:17 PM EDT (10/13) 1:00 AM EDT (10/13)
Length of Visible Light 12h 03m
Length of Day
11h 03m
Waxing Gibbous, 69% of the Moon is Illuminated
Oct 13
Waxing Gibbous
Oct 18
Full
Oct 26
Last Quarter
Nov 3
New
Nov 10
First Quarter

Hourly Weather History & Observations

Time (EDT) Temp. Windchill Dew Point Humidity Pressure Visibility Wind Dir Wind Speed Gust Speed Precip Events Conditions
12:00 AM 51.8 °F - 48.2 °F 88% 30.33 in 25.0 mi ENE 4.6 mph - N/A   Clear
1:00 AM 50.0 °F - 46.4 °F 87% 30.34 in 25.0 mi ENE 4.6 mph - N/A   Clear
2:00 AM 48.2 °F - 46.4 °F 93% 30.35 in 25.0 mi ENE 5.8 mph - N/A   Clear
3:00 AM 48.2 °F - 46.4 °F 93% 30.34 in 20.0 mi ENE 3.5 mph - N/A   Clear
4:00 AM 46.4 °F - 46.4 °F 100% 30.35 in 20.0 mi ENE 2.3 mph - N/A   Clear
5:00 AM 44.6 °F 43.1 °F 44.6 °F 100% 30.35 in 10.0 mi NE 3.5 mph - N/A   Clear
6:00 AM 44.6 °F 41.4 °F 44.6 °F 100% 30.35 in 10.0 mi NE 5.8 mph - N/A   Clear
7:00 AM 46.4 °F 44.3 °F 44.6 °F 93% 30.37 in 6.0 mi ENE 4.6 mph - N/A   Overcast
7:37 AM 46.4 °F 45.2 °F 46.4 °F 100% 30.38 in 2.5 mi NE 3.5 mph - N/A   Overcast
8:00 AM 48.2 °F - 46.4 °F 93% 30.38 in 2.5 mi NE 5.8 mph - N/A   Overcast
8:28 AM 48.2 °F - 48.2 °F 100% 30.40 in 5.0 mi NE 6.9 mph - N/A   Overcast
9:00 AM 50.0 °F - 48.2 °F 94% 30.39 in 5.0 mi ENE 6.9 mph - N/A   Overcast
10:00 AM 51.8 °F - 50.0 °F 94% 30.40 in 5.0 mi ENE 4.6 mph - N/A   Overcast
11:00 AM 53.6 °F - 50.0 °F 88% 30.40 in 5.0 mi NE 5.8 mph - N/A   Overcast
12:00 PM 55.4 °F - 50.0 °F 82% 30.39 in 10.0 mi NNE 8.1 mph - N/A   Mostly Cloudy
1:00 PM 59.0 °F - 50.0 °F 72% 30.37 in 10.0 mi North 5.8 mph - N/A   Mostly Cloudy
2:00 PM 62.6 °F - 51.8 °F 68% 30.33 in 15.0 mi NE 6.9 mph - N/A   Partly Cloudy
3:00 PM 64.4 °F - 50.0 °F 59% 30.31 in 25.0 mi NE 5.8 mph - N/A   Mostly Cloudy
4:00 PM 66.2 °F - 50.0 °F 56% 30.30 in 45.0 mi SE 3.5 mph - N/A   Mostly Cloudy
5:00 PM 66.2 °F - 51.8 °F 60% 30.29 in 25.0 mi NE 3.5 mph - N/A   Scattered Clouds
6:00 PM 62.6 °F - 51.8 °F 68% 30.29 in 25.0 mi ENE 3.5 mph - N/A   Scattered Clouds
7:00 PM 60.8 °F - 51.8 °F 72% 30.29 in 25.0 mi NNE 3.5 mph - N/A   Mostly Cloudy
8:00 PM 59.0 °F - 51.8 °F 77% 30.29 in 25.0 mi NNE 3.5 mph - N/A   Mostly Cloudy
9:00 PM 57.2 °F - 51.8 °F 82% 30.27 in 25.0 mi NE 5.8 mph - N/A   Mostly Cloudy
10:00 PM 59.0 °F - 51.8 °F 77% 30.28 in 25.0 mi NNE 4.6 mph - N/A   Mostly Cloudy
11:00 PM 57.2 °F - 51.8 °F 82% 30.28 in 25.0 mi North 4.6 mph - N/A   Mostly Cloudy